GEFSMW_500_meanwind_006.txt.gz
Wind_Speed
19 22 25 26 27 27 24 20 17 15 15 16 18 17 16 18 20 22 23 21 20 22 23 22 19 17 15 14 14 14 16 13 11 10 10 7 6 6 6 7 10 13 14
20 22 25 26 27 26 23 20 18 18 18 19 20 19 20 20 21 22 22 22 21 23 25 23 21 20 19 16 16 18 17 14 12 11 12 10 8 8 8 7 9 11 13
22 23 24 25 26 26 23 21 21 23 23 22 22 21 21 21 21 22 22 23 23 24 25 25 24 22 23 21 20 20 19 18 14 11 13 14 12 12 11 11 11 12 13
23 25 26 25 24 23 22 23 24 25 25 24 22 20 20 21 22 21 21 23 24 26 27 26 23 23 24 22 22 23 22 19 17 16 15 15 14 14 14 14 13 12 14
23 27 29 27 25 24 24 25 26 27 26 24 22 20 20 20 20 19 21 23 23 25 27 26 24 24 25 24 22 23 22 20 19 18 16 15 16 15 15 15 14 14 14
25 26 27 27 26 25 25 26 26 25 25 24 23 23 21 19 19 19 22 23 23 25 27 26 27 27 27 26 23 23 22 19 19 19 17 16 17 16 16 17 17 16 16
28 27 26 26 26 26 24 22 21 21 21 21 22 22 21 18 17 17 20 22 23 26 28 27 29 27 26 27 26 27 27 24 22 22 20 20 19 18 18 18 18 16 16
30 29 28 27 26 24 20 19 19 19 18 18 19 19 18 17 16 16 18 19 21 26 27 26 28 28 27 27 27 27 27 26 25 25 24 24 24 22 20 19 18 16 16
29 28 29 28 22 18 16 16 18 18 17 16 15 15 16 16 16 17 18 19 20 22 25 25 26 27 30 31 31 30 29 28 27 27 26 25 25 23 22 22 21 19 18
29 27 26 24 18 15 15 16 17 17 17 16 14 14 14 15 16 18 19 20 21 22 25 26 26 27 29 30 30 31 31 32 31 30 30 29 26 23 22 23 23 23 22
24 23 19 17 15 15 15 16 16 16 16 16 16 15 16 16 17 18 20 21 22 23 25 27 29 29 29 29 28 28 27 27 27 27 30 32 30 25 23 23 23 24 25
22 22 18 16 15 16 16 17 17 16 17 17 17 17 17 18 18 18 19 21 23 23 24 25 26 27 27 26 25 24 21 22 23 25 28 31 29 24 21 20 22 23 23
25 26 23 20 18 18 19 19 20 19 20 20 19 18 18 18 18 17 18 19 21 22 22 22 21 22 23 23 23 22 21 20 20 21 23 24 23 22 20 19 20 21 23
26 26 25 23 21 22 23 24 24 25 25 24 23 21 19 18 17 17 18 19 20 21 20 20 21 22 21 21 21 22 23 22 20 19 19 21 23 23 21 20 20 21 22
24 21 20 20 21 23 26 28 28 29 28 27 26 24 23 21 20 20 19 19 18 19 21 20 22 24 24 21 21 22 23 23 23 23 22 24 25 25 24 21 20 20 22
23 20 17 18 19 23 26 28 29 29 28 27 26 26 26 26 24 23 21 20 19 19 19 19 19 22 23 23 22 21 22 24 26 26 26 27 27 26 24 21 19 20 22
23 20 19 19 21 24 27 28 29 28 27 26 26 27 28 29 27 25 24 23 22 21 19 18 19 20 22 23 23 22 22 23 25 28 30 30 28 27 26 23 21 21 22
20 20 22 25 27 28 28 27 26 25 25 25 27 28 29 29 28 27 27 27 25 22 20 20 19 20 22 23 24 24 24 24 25 26 28 31 31 29 26 24 23 23 23
20 24 27 28 29 29 28 25 24 24 24 24 24 25 27 27 27 27 29 29 27 25 23 22 22 21 21 23 24 24 23 24 24 25 25 28 29 28 27 26 25 25 25
23 24 26 27 27 25 24 23 23 23 22 23 23 25 27 28 28 30 31 31 29 27 26 24 24 24 22 21 24 25 24 24 24 24 24 24 25 27 28 28 27 26 26
20 21 23 23 22 22 22 22 22 23 24 25 26 28 30 30 31 32 32 31 30 28 25 24 24 24 23 21 21 23 24 25 26 25 24 23 23 26 28 29 28 27 28
17 18 18 19 19 20 20 21 22 23 24 25 26 27 29 30 31 32 32 32 30 27 26 25 25 24 23 21 20 20 22 25 27 27 27 26 26 27 28 28 28 28 28
15 16 17 18 19 20 21 21 21 21 22 23 24 26 28 29 30 30 30 30 28 25 25 25 26 25 23 22 21 21 21 22 25 27 28 28 29 29 29 29 29 29 30
15 16 17 18 19 20 20 19 18 18 20 20 20 20 21 23 25 26 26 26 24 23 24 24 25 24 22 22 21 21 21 20 21 22 25 27 29 29 29 29 30 30 30
14 15 16 17 18 19 19 18 17 16 17 16 14 14 15 14 13 14 16 18 20 21 21 21 21 21 22 22 21 21 22 22 22 23 24 25 27 28 28 28 28 29 29
12 13 13 14 17 18 17 16 14 13 14 13 12 12 13 10 4 2 8 13 16 17 18 18 19 20 21 21 21 21 22 23 23 23 23 23 24 24 25 25 25 26 27

GEFSMW_500_meanwind_012.txt.gz
Wind_Speed
23 23 22 21 19 18 19 20 21 22 22 20 18 17 17 17 17 16 15 15 15 16 17 18 18 18 18 17 17 15 15 13 10 7 5 4 4 5 5 7 9 12 13
23 23 23 22 21 20 20 21 21 22 22 21 20 19 19 19 19 18 18 18 19 20 21 23 23 22 21 20 19 18 17 16 13 10 8 7 7 7 6 6 7 10 12
24 25 25 23 22 21 21 21 22 22 21 21 21 21 21 21 21 20 21 21 22 23 24 25 27 26 25 23 22 20 19 18 16 13 11 11 11 11 10 9 8 8 10
26 27 27 23 22 22 22 22 21 21 21 22 23 24 24 23 22 22 22 22 22 24 25 27 28 29 29 27 25 22 21 21 19 16 14 13 13 13 14 13 12 10 10
27 28 27 24 23 23 23 22 21 21 21 22 24 24 23 22 22 23 23 23 23 23 24 26 29 30 31 30 28 26 25 24 22 20 18 17 16 15 15 15 15 15 15
28 29 27 26 25 24 24 24 23 22 22 22 21 21 20 20 21 22 24 24 23 22 22 24 27 30 32 32 31 29 28 27 26 24 22 21 19 18 16 16 16 17 17
28 28 27 27 27 27 26 25 24 23 21 20 19 19 18 18 19 20 21 22 20 20 21 24 27 30 32 33 32 31 31 30 28 28 26 24 22 20 17 16 15 16 16
28 28 27 27 27 27 26 25 24 22 20 18 17 17 16 16 16 17 18 19 18 17 19 23 26 29 32 32 32 31 32 30 30 29 28 26 25 23 20 18 16 16 16
28 27 26 26 26 26 25 23 21 20 18 16 15 15 15 15 15 15 16 16 16 16 17 19 23 26 28 31 32 32 32 31 31 31 30 29 27 26 25 23 21 20 18
27 26 26 26 26 25 23 21 19 18 17 15 14 13 13 14 15 16 16 17 17 17 19 20 19 22 24 27 29 32 32 32 32 33 32 32 31 30 28 27 25 24 22
27 26 25 25 25 25 23 21 19 18 17 16 15 14 14 15 16 16 17 18 18 19 20 20 21 23 25 27 30 32 33 32 32 33 33 33 33 32 31 29 27 25 24
25 24 23 24 25 24 23 20 18 18 18 18 17 17 17 18 18 18 19 19 20 20 20 21 22 23 24 26 28 30 32 32 33 34 35 35 36 35 34 32 30 28 27
24 23 23 24 25 24 23 20 18 17 17 18 19 20 21 21 20 20 20 20 20 20 20 21 22 23 24 24 26 28 30 32 34 35 35 36 36 35 35 34 34 32 30
25 24 24 24 25 24 22 18 17 17 17 18 20 21 22 22 22 22 21 20 20 19 19 20 21 22 22 23 24 25 28 30 32 33 33 34 34 33 33 33 34 34 32
25 25 25 25 25 24 21 19 19 19 20 21 21 22 22 22 23 23 22 21 21 20 20 20 21 22 22 22 24 24 26 28 28 29 29 30 31 31 31 32 33 33 32
26 26 27 26 25 23 22 22 23 24 25 26 25 24 23 23 23 23 23 22 22 22 21 21 21 21 21 22 23 24 25 26 27 28 29 29 29 29 29 31 32 32 31
28 28 26 25 23 22 23 25 27 27 27 27 27 25 24 24 24 24 24 24 24 24 24 23 22 22 22 22 22 23 24 25 28 29 29 29 28 28 28 30 30 30 29
25 23 22 21 21 23 25 27 27 27 27 26 25 25 24 24 25 25 25 25 25 25 25 25 23 23 23 23 23 23 24 25 26 28 29 29 29 28 28 29 29 29 29
15 16 17 19 21 23 24 25 26 26 25 25 25 25 24 24 24 24 25 25 24 24 25 25 24 23 24 24 25 26 25 25 26 27 28 28 30 30 30 30 30 30 30
10 13 15 18 20 21 22 23 23 24 25 25 25 26 25 25 25 26 27 27 27 27 25 25 24 25 25 25 26 27 27 26 25 26 28 28 30 32 32 32 32 32 32
10 13 15 17 18 19 21 22 23 24 24 25 25 25 26 26 27 28 28 29 29 30 29 28 27 26 26 26 27 28 27 25 24 25 26 28 30 32 33 34 34 34 34
11 13 15 16 18 19 21 22 23 23 23 23 22 23 23 24 26 27 28 29 30 30 30 29 28 27 26 26 27 27 27 25 24 23 24 27 30 31 33 34 35 36 36
13 14 15 16 18 18 19 21 21 21 20 19 19 19 20 21 23 25 27 28 28 28 28 28 28 27 27 27 27 27 26 25 24 23 23 24 27 29 30 31 32 33 35
13 14 15 16 16 18 19 20 19 18 16 16 16 16 17 18 20 21 22 23 24 24 24 25 26 27 26 26 26 26 25 24 24 23 23 23 24 25 25 26 28 29 30
13 13 14 15 16 18 19 19 17 14 14 14 14 14 15 17 17 17 15 13 15 17 17 18 19 20 22 23 23 24 24 23 23 22 22 22 21 21 21 21 23 25 25
13 13 14 15 17 18 18 17 15 13 13 13 13 14 14 15 15 16 12 6 4 8 9 11 13 15 17 19 21 22 22 22 22 22 22 21 20 20 19 20 21 23 25

GEFSMW_500_meanwind_018.txt.gz
Wind_Speed
23 22 22 22 22 21 22 23 24 24 24 23 20 19 19 21 22 21 19 18 17 16 15 14 15 16 17 17 17 18 17 16 14 12 11 9 8 9 10 12 15 17 19
25 24 23 23 22 22 23 24 24 25 25 24 23 22 22 23 24 23 22 22 20 19 18 16 16 16 18 19 20 20 19 18 17 15 13 11 9 8 8 10 13 15 17
25 24 24 23 23 23 25 25 25 26 26 26 26 26 25 26 26 26 26 25 24 22 21 19 19 19 20 21 23 22 22 21 20 18 16 13 12 11 10 9 10 12 15
25 26 26 25 25 25 25 25 25 27 28 28 28 28 29 29 29 29 28 27 26 25 24 23 22 23 23 24 26 26 26 24 23 21 19 17 15 13 12 11 10 10 12
25 26 26 26 26 26 26 26 27 28 29 29 29 30 30 31 31 30 30 29 29 28 26 25 25 26 28 28 28 29 29 28 26 24 22 20 19 17 14 13 13 13 13
24 24 25 26 26 27 27 27 27 27 28 29 30 30 31 31 31 29 29 28 28 28 27 27 27 27 28 30 31 30 30 31 29 27 25 23 22 19 17 16 15 15 15
22 23 24 25 26 27 27 27 27 27 27 28 29 29 29 28 28 27 26 26 26 26 26 26 27 27 28 30 30 31 32 33 33 30 28 26 25 23 20 19 17 17 17
22 23 24 25 26 27 26 25 26 26 27 27 26 25 24 24 24 24 23 22 22 22 22 23 24 24 24 26 28 31 34 34 35 34 32 30 29 27 24 22 20 18 18
23 24 24 25 25 25 25 24 24 25 26 25 24 22 21 20 20 20 19 18 18 18 18 19 20 21 22 22 24 29 32 35 35 35 35 33 32 31 28 26 23 21 19
22 22 22 22 22 23 23 23 23 23 24 24 23 21 20 19 18 17 16 16 16 17 17 17 18 19 21 22 23 27 31 34 36 36 36 35 34 32 31 29 27 25 24
21 21 22 22 22 22 22 21 21 22 23 23 22 21 20 19 18 16 16 15 15 16 17 17 17 18 19 20 21 23 28 32 34 35 36 36 35 33 33 31 30 29 28
22 22 22 23 22 22 21 20 21 22 23 22 21 20 20 20 20 19 18 17 17 17 18 18 18 18 19 20 20 21 23 28 32 33 33 34 34 32 33 33 32 32 31
24 24 24 23 23 22 22 21 21 22 22 21 20 20 20 21 21 21 21 20 19 19 19 19 19 19 20 21 21 21 22 25 29 32 32 32 33 33 34 35 34 34 34
27 27 26 25 24 23 22 21 22 23 22 21 21 21 21 22 22 23 23 22 22 22 21 21 20 20 21 23 23 24 24 25 27 30 32 33 34 35 35 35 35 35 35
29 28 27 25 23 22 22 23 23 23 22 22 23 23 23 23 23 23 24 24 24 24 23 23 22 22 23 23 24 25 25 26 28 30 31 32 33 35 35 35 36 36 36
28 27 26 25 24 23 23 24 24 23 23 24 24 25 24 23 23 23 24 24 25 25 25 25 24 24 24 24 24 24 25 26 27 28 30 31 32 33 34 35 36 36 36
25 24 24 23 23 23 23 23 23 22 23 23 24 24 23 23 23 23 23 24 24 25 25 26 26 25 25 24 25 24 25 26 26 27 27 28 29 31 32 34 35 35 35
19 20 20 20 21 21 22 22 22 22 23 23 23 23 22 23 23 23 23 23 24 24 25 26 26 26 26 25 25 25 25 26 26 26 26 26 26 26 29 31 32 32 32
12 13 14 15 17 17 18 20 21 22 22 22 22 22 23 23 23 23 23 23 23 23 24 25 26 26 26 26 26 26 26 26 25 25 25 25 25 25 25 27 29 31 31
6 8 10 13 15 16 18 19 20 21 21 22 22 22 23 23 23 23 24 24 24 24 25 25 25 26 26 25 25 26 27 26 25 25 25 24 24 24 25 26 28 30 31
7 9 11 12 14 16 17 18 19 19 20 21 21 21 21 21 21 21 22 23 24 25 26 27 27 27 27 26 26 26 26 26 26 25 24 24 23 22 23 25 27 28 29
8 10 11 12 13 14 15 16 16 18 18 19 19 18 18 18 18 19 20 22 24 26 27 28 29 28 28 27 27 27 26 26 26 25 24 23 22 22 23 24 25 26 27
10 11 11 11 11 12 13 14 16 16 16 16 16 15 15 15 16 18 19 21 23 25 27 28 29 29 29 28 27 27 27 27 26 25 24 22 22 22 22 22 23 25 26
11 11 11 11 11 12 13 14 15 15 14 14 13 12 13 14 15 16 17 19 21 22 23 25 26 27 27 26 27 27 26 26 25 24 23 22 22 22 21 21 21 22 23
11 11 11 11 11 12 13 14 14 13 12 11 10 11 12 13 14 15 16 16 16 15 16 17 20 22 22 23 24 24 25 25 24 22 22 22 22 21 21 21 21 21 20
11 11 12 12 11 12 12 12 12 11 10 9 10 11 11 12 13 14 14 14 14 10 7 7 10 13 15 17 18 19 21 21 21 20 20 20 20 20 21 21 21 21 20

GEFSMW_500_meanwind_024.txt.gz
Wind_Speed
29 29 25 23 22 21 20 20 21 20 20 20 20 21 21 21 20 19 21 22 22 22 22 22 22 20 19 18 16 17 18 18 18 17 16 15 13 12 11 11 13 14 14
29 31 28 25 23 21 21 21 21 21 21 22 21 21 22 22 21 22 22 23 23 24 24 24 24 23 22 20 19 18 19 20 20 20 18 16 14 12 10 10 11 12 12
31 32 29 25 24 22 21 21 21 21 22 22 22 22 22 23 23 23 24 24 25 26 26 25 25 25 23 21 21 21 21 21 21 21 20 18 15 12 11 9 9 10 11
30 32 30 26 25 23 22 21 21 21 21 22 22 23 23 23 24 24 25 26 27 27 27 26 27 26 26 24 24 24 23 22 21 22 22 20 18 15 12 11 9 8 9
29 31 29 27 26 23 22 21 20 20 21 21 22 22 23 23 24 25 26 27 27 27 27 27 27 27 27 27 27 25 25 23 22 22 22 22 21 19 16 14 12 10 9
27 29 27 25 24 22 21 20 20 20 21 21 21 22 23 24 25 26 27 27 27 26 26 26 26 27 28 28 27 25 25 23 23 23 23 23 23 23 20 17 15 13 11
25 24 22 21 20 20 20 20 20 21 21 21 22 22 23 25 25 25 25 25 25 24 24 24 25 26 27 27 27 26 25 24 24 24 25 25 25 25 23 21 18 16 14
22 21 18 18 18 18 19 20 20 21 21 21 22 23 23 24 24 24 23 23 22 21 21 22 23 23 23 24 24 25 24 25 24 25 26 26 28 28 27 25 22 20 17
18 18 16 16 16 17 19 20 20 20 21 21 22 23 22 22 22 22 21 21 20 19 19 19 20 20 20 21 21 21 23 24 25 24 25 26 29 30 29 28 26 23 21
16 17 17 17 17 18 19 20 20 20 21 21 21 22 21 21 21 20 19 19 18 18 18 17 17 18 18 19 20 20 21 21 22 23 24 27 29 31 32 31 30 28 25
17 18 17 17 17 18 19 20 20 21 21 21 21 21 20 20 19 19 18 18 18 18 18 17 17 17 17 18 18 19 19 20 20 22 24 26 29 30 32 32 32 31 29
17 18 18 18 18 18 19 20 21 21 21 22 22 22 21 21 20 19 18 18 19 19 19 19 19 18 18 19 19 20 20 20 19 20 21 22 26 29 31 32 32 32 31
20 21 21 21 20 20 21 22 23 23 22 22 23 23 23 23 22 21 20 20 20 20 21 21 20 20 20 20 20 21 21 21 20 20 19 20 23 26 30 31 32 33 33
21 22 23 23 22 23 24 24 24 24 23 24 23 23 24 23 23 22 22 22 22 22 22 22 22 22 22 22 22 22 22 22 21 21 21 21 22 24 26 28 30 32 33
21 23 24 25 24 24 25 25 24 24 24 24 24 24 24 23 23 23 23 23 23 23 23 23 22 23 23 23 23 23 23 23 23 23 23 22 21 23 24 26 28 30 31
19 20 22 23 23 23 22 23 22 23 24 24 24 24 24 23 23 23 24 23 23 24 24 24 23 23 23 24 24 23 23 23 23 23 23 23 22 23 24 25 26 28 30
13 14 17 19 20 20 20 21 22 22 23 24 24 24 24 24 24 24 24 24 24 24 24 24 24 23 23 24 24 24 24 24 24 23 23 23 23 22 23 24 25 26 28
5 7 10 13 14 15 16 17 18 19 21 22 22 23 23 24 24 24 24 25 24 24 24 24 24 24 23 24 24 25 25 25 25 24 24 24 23 23 22 23 25 25 26
2 2 4 6 9 11 13 15 16 17 19 21 22 22 23 23 24 24 24 25 24 24 24 24 25 24 24 25 25 25 26 26 25 25 24 24 24 24 24 23 24 24 25
3 3 4 6 8 10 12 14 16 17 19 20 21 21 22 22 23 23 23 23 23 23 24 24 25 25 24 25 26 26 26 26 27 26 26 25 25 24 24 24 23 24 25
5 6 7 9 11 12 13 15 16 17 19 19 20 21 21 21 21 21 21 21 22 23 23 24 25 25 25 26 27 27 27 27 27 27 26 25 25 25 24 24 23 23 24
7 8 10 11 12 13 14 15 17 17 18 19 20 20 20 19 18 18 19 20 21 21 22 24 25 27 27 27 28 28 28 27 26 26 25 25 24 24 23 23 23 23 23
8 10 11 12 13 14 15 16 17 18 18 18 18 18 17 17 17 17 18 19 19 21 22 23 25 26 27 27 28 29 28 27 26 25 24 23 23 23 22 22 22 22 23
10 12 13 14 15 15 16 16 17 17 17 17 17 16 16 16 16 16 17 17 18 19 20 20 21 22 23 25 25 27 27 26 26 25 24 23 22 21 21 21 21 21 22
12 13 15 15 15 16 16 17 17 17 17 16 16 15 16 16 16 16 16 16 17 17 18 18 18 18 18 18 20 21 22 24 24 23 22 22 22 22 21 21 21 21 21
13 14 16 16 16 16 16 16 16 16 16 16 16 16 16 15 15 15 15 15 16 16 16 15 14 11 10 11 13 15 16 17 18 19 19 19 20 20 20 21 21 21 21

GEFSMW_500_meanwind_030.txt.gz
Wind_Speed
30 30 30 29 26 24 22 21 20 19 19 19 19 18 17 17 17 18 17 17 17 17 17 17 17 17 18 18 17 17 16 16 16 17 17 17 16 16 16 15 15 16 17
34 33 32 30 28 25 24 23 23 22 21 21 21 20 19 18 17 17 17 17 17 18 18 19 20 20 21 20 20 20 18 17 17 18 18 18 18 17 16 15 15 15 16
35 33 32 32 29 27 26 26 25 24 23 23 22 21 20 18 18 17 18 18 19 19 20 22 23 23 23 23 22 22 20 19 19 19 18 19 20 19 18 16 15 14 14
31 32 32 31 30 28 27 28 28 27 26 25 23 22 21 20 19 18 18 19 20 21 22 23 24 25 25 25 25 25 23 22 21 21 20 20 20 21 20 18 16 14 14
28 30 30 30 30 30 30 29 29 28 27 24 23 22 20 20 19 19 20 21 22 23 24 25 25 25 26 26 27 26 25 24 23 21 21 20 20 21 21 20 18 16 14
26 27 29 30 31 32 32 31 29 27 26 23 21 21 21 21 21 21 22 23 24 24 25 25 25 25 25 25 27 28 28 26 24 23 21 21 20 20 22 22 20 18 16
25 26 28 28 31 33 34 31 27 26 23 21 20 20 20 21 21 22 23 24 25 25 25 24 24 23 23 24 25 27 28 27 26 24 22 21 21 21 23 23 22 21 19
24 25 26 26 27 28 28 27 24 22 20 18 18 19 20 21 22 23 23 24 24 23 23 23 22 22 22 22 23 24 25 26 26 24 23 22 20 21 23 24 25 24 22
22 24 24 24 22 21 20 20 18 16 15 16 18 19 21 22 22 22 22 21 21 21 21 21 21 20 20 20 20 21 22 22 23 22 23 23 21 21 23 25 26 25 24
21 23 22 21 19 17 16 14 12 14 15 17 19 20 21 21 21 20 20 19 19 19 19 19 19 19 19 19 18 18 18 18 18 19 19 20 21 22 23 24 26 27 27
20 20 20 18 16 14 13 13 14 15 17 18 20 20 21 21 20 20 20 19 19 19 19 18 18 18 18 17 17 17 17 17 17 18 18 18 19 21 22 25 27 28 29
14 15 15 13 12 12 12 14 15 17 18 19 20 21 22 22 21 21 20 20 21 20 20 19 18 18 18 17 17 17 17 16 17 17 16 17 18 20 21 23 27 29 30
10 11 11 11 10 11 14 16 17 18 19 20 21 22 23 22 21 21 21 21 21 21 20 19 18 18 18 18 18 18 18 18 18 17 17 17 17 18 19 21 24 27 29
9 10 12 13 13 14 16 17 18 19 21 22 22 23 23 22 20 19 20 20 20 20 19 19 19 19 19 19 19 19 19 19 19 18 18 18 18 19 19 19 21 25 28
8 10 12 13 13 14 16 18 19 20 22 22 22 23 22 21 19 18 19 19 19 19 19 18 18 18 19 19 19 19 19 20 20 20 19 19 18 19 20 20 21 23 26
7 9 11 12 13 13 15 17 17 19 21 22 22 20 20 18 17 17 18 18 19 19 19 19 19 19 19 20 20 20 21 21 21 21 20 20 20 20 20 21 21 22 24
5 7 8 9 9 11 12 14 15 16 18 19 19 18 18 17 16 17 19 19 20 20 19 19 19 19 19 19 20 20 21 21 21 22 22 22 21 20 20 21 21 21 22
2 1 2 4 6 8 9 10 12 13 15 16 17 18 18 18 18 19 19 20 20 20 20 19 19 19 19 19 19 20 21 21 21 21 21 22 22 21 21 21 21 21 22
3 3 3 3 4 5 7 9 11 13 14 16 17 18 18 19 19 19 19 20 20 20 20 19 19 19 19 19 20 20 20 21 21 21 21 22 22 22 22 22 22 22 22
4 4 4 5 6 8 9 11 13 14 16 17 18 19 19 19 20 19 19 19 19 20 20 20 20 20 20 20 20 21 21 22 22 22 22 23 23 23 23 23 22 22 22
6 6 7 8 9 11 12 13 15 16 17 18 18 19 19 19 19 19 19 19 19 19 19 19 20 20 20 20 21 22 22 22 22 23 23 23 24 24 24 23 23 23 23
7 8 9 11 12 13 14 15 16 17 18 18 19 19 18 18 18 18 18 18 18 19 19 19 19 20 20 22 22 22 23 23 23 23 23 24 24 23 23 23 24 24 24
8 10 12 13 14 15 15 16 17 17 18 18 18 18 17 17 17 17 17 17 18 18 19 19 19 19 20 21 21 21 21 22 23 23 23 22 23 23 23 22 23 23 24
9 11 13 15 15 15 16 16 17 17 17 17 16 16 16 16 16 16 17 17 17 17 18 18 18 18 19 19 19 20 20 21 22 23 23 22 22 22 22 22 22 22 23
10 12 14 15 15 16 16 17 17 17 16 16 15 15 14 14 15 15 15 15 16 16 16 16 16 16 16 15 15 16 16 18 19 20 21 21 21 21 21 21 21 21 22
12 13 14 15 16 16 17 17 17 17 16 15 14 14 13 13 13 13 13 14 14 14 14 13 14 13 12 11 10 10 10 12 14 15 16 17 18 18 19 20 20 20 21